Location: Beadle
(51.4667°N, 109.0000°W)
Time: 17:14:53
(UTC+00:00)

DIWATA 2B (PO-101) - Pass Details

Date: 07 July 2022
Orbit: 583 x 599 km, 98.0° (Epoch: 19 August)

Event Time Altitude Azimuth Distance (km) Brightness Sun altitude
Rises 07:19:26 0° 110° (ESE) 2,844 ? -16.0°
Reaches altitude 10° 07:22:35 10° 84° (E) 1,947 ? -16.0°
Maximum altitude 07:24:38 13° 55° (NE) 1,731 ? -16.0°
Drops below altitude 10° 07:26:41 10° 26° (NNE) 1,951 ? -15.9°
Sets 07:29:51 0° 0° (N) 2,858 ? -15.9°
